Vorticity
9 7 6 8 11 10 9 6 7 10 9 6 8 12 11 9 8 5 3 1 3 6 5 7 10 10 9 8 9 9 7 4 2 2 2 1 5 6 2 1 3 5 5 6 6 7 9 6 6 7 4 6 6 4 5 6 7 7 7 6 5 5 5 5 4 5 5 5 5 5 5 6 6 5 5 4 4 4 4 4 4 5 5 5 5 4 4 5 5 6 7 9 10 10 9 8 7
9 7 4 4 9 10 12 10 7 12 11 5 4 9 11 14 14 10 7 3 3 6 5 5 8 9 10 9 7 9 9 8 6 4 4 2 2 4 1 -0 1 2 2 3 4 5 5 4 6 7 6 7 8 8 6 6 6 6 7 6 5 5 5 4 4 5 4 4 4 4 5 5 6 6 5 5 5 4 4 4 4 5 5 5 5 4 4 4 4 5 6 8 10 10 10 10 9
8 9 3 1 5 6 13 13 6 9 9 2 -1 2 3 8 12 12 11 7 4 4 6 7 7 6 7 10 9 8 8 9 9 7 8 7 3 1 2 3 4 3 3 5 4 4 6 6 6 6 6 7 8 9 8 6 6 6 7 5 5 5 5 4 4 4 3 4 5 4 4 5 5 5 5 5 5 5 4 4 4 4 5 5 5 4 4 4 4 5 5 7 9 10 10 10 9
7 11 8 3 3 3 8 9 3 4 6 2 0 0 -2 3 7 8 9 8 7 3 5 9 8 7 5 7 11 11 9 8 7 6 7 10 6 3 6 7 7 7 6 7 6 5 6 5 7 7 5 6 6 6 6 6 7 6 6 6 6 5 5 5 4 3 3 4 4 4 4 4 4 5 5 5 5 5 5 4 4 4 4 4 4 5 4 4 4 4 5 6 8 10 11 11 9
8 9 9 6 1 -0 1 3 2 0 1 1 1 -1 -3 1 3 5 7 7 9 3 1 7 8 8 7 6 9 11 12 9 7 6 6 9 8 5 7 8 9 9 7 7 6 5 6 5 7 8 5 5 5 4 5 5 6 6 5 5 5 5 5 5 5 4 3 4 4 4 4 4 4 4 4 4 5 5 5 4 5 4 4 5 4 4 4 4 4 4 4 5 7 9 11 11 9
11 10 10 9 6 2 2 3 2 -0 -2 -2 -1 -1 -2 -0 1 3 5 6 9 6 1 4 7 8 7 6 7 9 11 10 9 9 6 8 9 6 5 5 7 8 8 10 8 5 6 6 5 7 5 5 6 5 5 5 4 5 5 5 5 5 5 6 5 4 4 4 4 4 4 4 4 4 3 3 4 5 5 5 5 5 5 5 4 4 4 4 4 4 4 5 5 7 11 11 9
5 5 7 9 11 6 4 6 3 1 -0 -2 0 1 -1 0 1 2 3 5 8 9 4 0 5 8 6 6 6 8 10 12 12 11 8 8 9 8 8 7 7 7 7 9 8 6 6 5 4 5 4 4 6 5 6 6 5 6 7 6 6 6 6 6 5 4 3 4 4 4 4 4 4 3 3 3 3 4 4 5 5 5 5 5 5 5 4 4 4 3 3 4 5 5 9 11 9
0 -1 2 5 9 6 3 5 5 2 2 1 2 2 0 1 0 1 3 3 4 8 9 3 2 3 5 7 5 6 8 11 11 11 11 10 10 10 12 11 10 9 7 7 7 6 7 6 6 5 4 6 5 5 6 5 5 6 6 6 6 5 5 5 4 4 3 4 4 4 4 4 4 3 3 3 3 3 3 3 4 4 5 6 6 5 5 5 4 4 4 3 4 4 5 10 10
4 2 4 4 2 4 3 1 3 2 4 4 4 3 -0 -1 -1 0 3 4 1 5 11 8 2 -2 4 6 5 7 7 8 8 8 10 9 10 10 11 12 10 9 7 4 4 6 7 8 9 8 7 7 7 7 6 5 5 4 5 5 5 4 4 4 4 4 3 3 3 3 3 3 3 3 3 3 3 4 3 2 2 3 4 5 5 5 5 5 5 5 5 3 3 4 4 6 9
5 4 4 5 -1 -0 2 -1 1 2 4 5 5 3 -2 -2 0 0 1 3 1 4 9 9 6 0 3 4 4 7 6 8 6 4 5 6 7 6 7 10 11 10 8 5 2 4 7 7 6 6 6 7 8 7 6 6 5 5 5 5 6 7 6 6 4 4 4 4 4 4 3 3 3 3 3 3 3 3 3 3 2 2 2 4 4 5 5 5 5 5 5 5 3 3 3 4 6
2 5 3 6 1 -5 -3 -3 1 3 3 3 3 2 -0 1 2 0 -0 1 1 7 9 8 10 6 5 3 2 6 7 8 9 5 3 4 4 4 4 5 8 9 8 7 4 3 4 4 4 3 3 2 3 4 6 6 6 6 7 7 7 7 6 6 6 5 5 5 4 4 4 4 4 4 3 3 3 3 3 3 4 3 3 3 3 4 5 5 5 5 5 5 5 3 3 4 4
-2 2 2 3 3 -3 -5 -1 3 5 5 1 0 2 2 2 2 -0 0 2 2 8 10 7 9 6 5 3 1 4 4 5 7 8 5 4 5 4 4 3 4 6 6 7 6 6 3 2 3 3 4 3 3 4 6 7 8 8 7 7 8 8 8 8 8 7 6 6 5 5 5 5 5 5 5 5 4 3 3 3 3 4 4 3 3 3 4 4 4 4 5 5 6 5 4 2 2
1 3 2 -1 2 0 -2 2 3 5 8 3 1 2 2 2 2 2 2 5 4 7 9 6 8 7 6 4 3 4 2 3 4 7 5 4 5 4 5 4 4 4 5 6 6 7 6 5 3 3 7 6 5 6 6 6 7 7 8 8 8 8 8 9 9 9 9 9 9 8 8 8 8 7 7 6 6 5 4 4 3 3 4 4 4 3 3 3 3 2 3 4 5 5 4 3 3
3 4 4 -3 -2 3 4 5 3 3 7 6 4 3 3 3 2 2 2 5 8 9 7 7 9 7 8 5 5 6 2 3 2 4 5 3 4 4 5 5 5 5 5 5 5 6 6 7 6 6 7 5 7 8 5 5 6 5 5 5 6 6 6 7 7 9 9 9 10 9 9 9 9 10 10 9 9 8 6 5 4 4 4 4 4 4 3 3 2 2 2 2 3 4 4 5 5
-0 0 4 -0 -1 7 8 8 5 2 4 4 5 4 3 3 -1 1 2 5 11 9 5 8 10 8 8 6 7 9 5 2 3 3 5 4 3 2 4 5 6 6 5 5 5 5 5 6 6 7 7 6 7 8 5 5 6 5 4 4 5 5 5 5 5 5 5 5 5 5 6 6 6 8 8 9 10 11 10 9 8 7 5 5 5 5 4 3 2 2 3 3 5 5 3 6 6
0 1 4 2 2 8 9 9 5 1 3 4 5 4 5 6 -0 3 5 6 11 9 7 8 10 9 10 7 6 11 8 3 4 6 6 6 6 4 3 2 4 4 5 6 6 6 6 6 6 6 7 6 5 7 10 7 4 5 6 5 4 4 5 5 4 4 4 4 3 3 2 1 2 2 3 4 5 7 9 10 10 9 9 8 10 11 7 4 5 4 2 2 8 9 4 5 5
2 4 8 6 3 7 7 9 7 -0 1 3 3 3 7 8 2 6 9 9 11 8 7 8 9 10 11 8 5 9 12 8 6 7 7 7 7 8 6 3 2 3 4 4 5 6 7 7 6 6 6 6 5 3 6 7 5 4 4 4 3 4 5 5 5 5 5 4 3 3 3 3 2 1 1 1 1 2 2 4 5 6 9 7 10 16 13 7 5 7 4 -1 4 8 6 5 4
2 3 5 4 2 7 7 5 7 2 1 2 2 4 8 8 5 8 11 11 11 7 5 7 8 9 11 10 5 6 11 11 9 8 8 9 7 8 8 5 2 1 1 0 -0 0 2 5 5 5 3 4 4 1 1 3 5 4 3 4 3 3 3 3 4 4 4 4 4 3 3 5 5 4 3 3 2 2 1 2 2 3 5 5 5 12 18 15 8 7 7 3 2 5 7 6 4
3 5 3 2 0 5 6 4 6 4 4 6 5 9 9 7 10 12 14 13 10 6 4 7 8 7 9 10 7 5 8 9 10 10 10 10 9 7 7 6 5 4 3 1 0 -1 -1 1 2 2 2 1 1 1 1 1 1 2 3 4 4 4 3 3 2 2 3 3 4 4 3 4 5 6 6 6 5 4 4 4 4 4 4 4 6 7 14 19 15 10 8 6 5 4 6 7 5
-0 2 6 6 1 1 5 5 6 7 8 9 9 11 9 5 11 15 16 14 9 5 4 7 9 9 8 8 7 6 5 6 7 8 9 10 10 9 8 8 7 7 7 7 7 6 5 3 2 2 2 2 2 2 3 2 1 1 2 4 4 4 4 4 3 3 3 4 5 5 5 4 4 5 7 7 7 6 5 4 4 5 2 3 8 7 7 12 14 13 10 9 7 7 7 7 7
-2 -5 3 2 -1 5 9 5 6 9 7 7 7 7 5 4 6 8 12 11 7 5 5 6 8 11 11 6 5 5 4 3 4 5 6 8 9 9 10 11 9 8 9 9 9 9 9 7 7 6 4 5 5 4 4 4 3 2 2 3 3 2 3 4 4 4 4 5 6 6 6 5 5 4 5 6 6 6 6 6 5 5 2 -0 5 8 7 7 9 10 8 8 7 10 12 9 9
3 -3 3 -2 0 14 14 6 7 9 7 7 6 2 0 2 3 2 7 10 9 6 4 6 6 9 13 9 5 3 3 3 3 3 4 6 8 8 9 12 10 8 8 7 5 6 6 6 6 5 5 6 6 6 5 3 3 3 2 3 4 3 3 4 4 4 4 4 3 4 5 5 6 5 4 4 4 4 5 6 6 7 5 1 2 6 7 5 5 7 7 6 2 7 13 14 14
9 -1 0 4 10 18 12 7 10 8 7 7 6 5 1 3 6 6 10 10 9 8 5 5 5 5 11 13 8 3 3 3 2 2 2 4 6 6 6 9 9 8 7 6 4 3 2 2 3 5 5 6 5 7 7 6 5 5 6 4 2 3 4 6 7 4 -1 -0 2 1 3 4 5 5 5 5 4 4 3 4 5 7 8 6 3 3 5 5 3 3 5 6 2 2 7 12 19
13 2 2 10 11 12 8 7 10 6 4 5 6 9 6 7 11 14 16 11 7 8 6 5 6 7 10 13 12 7 4 4 5 4 2 3 5 6 5 5 6 7 6 6 6 3 1 1 2 3 3 3 4 6 6 7 7 8 9 4 1 1 1 3 10 11 2 -1 0 1 4 5 5 4 3 3 4 4 4 2 2 3 5 7 7 4 4 4 5 3 3 4 2 0 -0 3 13
10 7 9 11 7 8 7 8 8 4 2 2 6 9 9 11 14 15 15 10 9 10 9 9 9 10 11 13 15 14 10 7 8 8 6 4 4 6 7 4 3 6 5 6 6 3 2 3 3 3 3 3 2 3 3 3 4 5 4 0 -1 0 0 1 6 15 15 8 3 3 5 3 1 1 1 3 5 5 5 4 3 2 2 4 7 7 5 3 4 5 4 4 3 2 -0 -2 3
3 9 11 4 6 4 2 6 3 1 2 1 4 8 11 12 11 12 13 11 10 10 11 11 10 9 10 13 15 16 13 11 10 10 9 6 5 6 10 9 4 4 4 5 6 4 4 4 4 4 4 4 1 3 4 2 0 -1 -0 -0 0 -0 1 2 3 9 14 13 10 8 8 5 3 2 1 2 6 8 6 4 3 3 3 3 4 7 9 7 4 4 6 6 5 5 3 -0 -2
1 12 9 -3 5 1 0 6 -3 -3 2 -1 2 8 12 8 6 10 13 12 8 7 9 9 9 8 10 12 12 12 12 13 12 11 10 8 7 5 7 10 7 6 7 7 7 8 10 9 8 6 4 3 2 3 5 4 3 1 1 2 3 4 4 5 5 4 3 2 -1 -1 6 12 14 11 4 0 3 8 9 6 4 4 5 4 4 7 11 11 7 5 6 8 9 8 7 5 -0
2 12 12 1 4 2 5 7 -5 -4 1 -1 0 7 12 4 4 12 12 11 8 7 9 8 9 9 10 10 8 8 10 13 14 13 12 11 10 8 8 10 9 8 9 10 9 10 14 13 12 13 14 18 17 14 11 10 11 9 6 5 5 8 9 8 8 5 4 2 0 4 12 17 21 19 10 6 6 8 9 8 7 5 5 6 5 6 9 11 8 3 2 4 7 8 9 8 4
2 15 18 7 5 3 7 7 -2 -5 -4 -0 -1 2 9 2 7 16 9 11 14 9 9 10 10 11 10 10 8 8 9 11 12 13 12 11 12 12 12 12 10 9 8 11 11 11 13 12 14 16 17 23 30 31 24 15 13 12 9 8 8 8 9 11 11 11 12 11 11 14 11 9 18 21 13 8 6 7 8 9 12 10 5 5 6 6 7 8 5 0 -1 0 3 6 8 10 9
7 19 14 8 8 3 2 3 3 0 -7 -2 -2 -2 5 1 7 17 10 12 16 8 7 8 8 11 11 11 10 8 9 11 11 12 11 9 10 11 11 10 9 9 9 10 9 7 8 10 12 12 9 10 17 24 26 20 16 14 14 14 12 11 10 9 7 8 8 7 6 5 2 1 6 12 11 7 4 4 9 12 15 17 13 7 3 2 6 7 3 -1 -1 2 5 5 4 6 9
11 12 3 9 12 3 -0 -0 5 9 2 1 -3 -5 4 3 3 12 11 11 12 6 6 8 7 10 11 10 10 8 8 9 9 9 9 8 8 8 8 8 8 8 8 8 6 4 6 9 9 9 7 6 6 8 13 14 12 11 11 12 11 11 9 5 3 2 2 3 2 2 5 5 3 4 6 7 5 2 5 10 10 12 16 16 10 3 3 5 4 3 3 4 6 7 5 5 7
13 8 5 13 9 -1 2 2 2 8 8 8 1 -5 0 4 1 6 10 10 11 6 4 8 7 7 9 9 8 8 7 7 6 5 6 6 5 5 5 6 6 6 7 6 6 6 7 8 8 8 7 7 6 6 7 8 8 7 8 9 10 11 10 10 8 6 5 5 4 4 5 7 7 5 4 5 5 2 3 7 9 8 9 13 15 12 9 6 4 5 5 2 1 1 2 5 7
11 7 6 11 7 1 3 2 1 4 5 6 3 -2 -1 5 3 2 8 9 10 9 5 6 7 6 7 6 6 7 6 6 5 4 4 4 4 5 5 4 5 5 6 6 6 8 8 8 7 7 7 7 8 8 8 8 8 8 9 10 10 11 10 9 8 7 7 7 6 8 8 10 9 7 10 8 3 5 9 7 8 10 8 5 7 11 14 13 8 4 2 -1 -2 -3 -5 -1 4
7 4 -1 1 4 3 3 2 2 3 3 2 1 -1 -1 5 6 1 5 8 8 10 7 5 6 5 4 5 5 5 6 5 5 5 4 4 4 4 4 4 4 4 6 5 6 7 8 8 7 7 7 7 7 7 7 7 7 9 11 10 8 8 9 8 7 6 8 9 8 9 10 11 9 9 13 12 5 7 12 11 9 8 10 10 7 7 11 14 13 8 5 2 2 3 -1 1 6
6 8 2 -1 3 3 2 2 2 1 0 -1 -0 0 -1 5 9 3 2 7 8 8 6 5 7 7 5 4 4 4 5 4 4 5 6 6 5 5 5 5 5 5 5 6 6 7 7 7 6 6 6 6 6 5 5 5 6 8 8 7 6 7 9 8 8 9 10 10 8 8 9 8 8 8 8 9 8 7 10 13 13 9 10 12 8 8 11 13 13 11 9 8 11 13 8 9 13
7 11 11 6 6 6 2 1 4 4 2 -0 -0 1 1 4 9 6 3 7 9 7 5 5 6 7 4 2 3 3 4 4 4 4 5 6 5 5 5 5 5 5 6 6 7 6 6 5 5 5 5 5 5 4 4 4 5 6 6 5 5 6 7 6 5 6 7 7 7 7 8 8 8 8 7 8 8 8 9 11 13 12 11 11 6 7 12 13 14 11 5 5 12 17 12 8 11
7 6 15 13 1 -2 0 3 7 5 1 0 0 2 4 5 5 5 5 7 10 8 5 5 6 6 3 1 3 2 3 4 4 4 5 6 6 6 6 7 7 8 8 8 7 6 4 3 5 6 5 5 5 5 5 5 4 5 5 3 4 6 7 7 6 6 7 7 8 8 8 9 7 7 7 8 8 8 9 9 11 13 12 11 10 10 11 11 12 12 9 7 10 10 5 4 9
0 -1 10 18 9 1 4 10 11 7 2 3 2 4 8 5 1 2 4 5 9 9 5 5 7 7 3 1 3 3 2 4 6 6 6 7 8 8 8 8 9 10 11 10 8 6 4 3 5 6 5 5 5 5 6 6 5 6 5 3 4 5 5 7 7 7 7 7 8 8 9 11 10 10 9 8 8 8 8 9 10 11 11 11 13 15 13 11 11 13 14 12 9 8 4 3 5
3 3 4 13 14 5 3 4 6 7 7 5 3 6 9 2 -3 1 4 3 7 8 5 6 7 7 5 2 3 3 3 4 7 6 5 8 8 7 7 7 9 11 12 12 10 7 5 5 6 6 6 5 6 6 6 7 7 8 8 8 9 9 7 7 6 6 5 5 6 7 7 8 8 9 9 9 9 8 8 9 8 9 9 9 13 16 15 15 13 11 12 9 6 7 6 2 1
7 7 4 5 7 4 1 -1 -1 -0 -0 -1 1 4 3 -1 -0 5 4 3 7 8 6 7 7 6 5 3 3 5 5 6 6 7 7 7 7 7 8 9 11 12 12 11 9 7 6 6 7 6 5 6 7 8 8 8 9 9 10 10 10 10 9 8 6 6 6 5 6 7 7 8 7 7 8 9 9 9 10 10 10 9 9 9 11 13 15 18 17 11 10 14 15 10 4 0 0
4 6 5 1 2 1 -2 -1 1 0 -1 1 4 1 -2 3 8 9 8 6 6 7 6 6 6 7 4 1 1 4 7 7 6 7 7 5 5 6 8 10 10 9 9 9 8 8 8 8 7 4 3 5 7 8 9 9 9 10 10 11 10 9 9 8 8 9 9 9 9 10 10 10 10 10 10 10 10 11 11 11 12 10 10 10 10 12 13 15 19 17 11 12 17 18 12 4 2
2 4 5 3 3 -2 -3 2 5 4 4 5 3 -3 -1 6 7 9 16 14 6 5 7 5 4 4 3 2 1 3 6 7 6 6 6 3 3 4 6 10 10 7 5 4 5 6 8 9 6 3 1 3 7 8 8 8 9 9 9 10 9 9 10 10 11 11 11 11 11 10 11 10 10 9 9 9 9 10 11 11 12 12 12 12 10 11 11 11 16 18 13 8 6 9 12 10 14
4 4 4 6 4 -2 -1 6 7 5 5 3 -2 -1 3 2 -0 5 18 22 11 5 6 5 4 2 2 5 5 4 5 6 6 5 4 2 1 2 3 6 9 9 5 1 -1 -1 2 6 7 5 1 1 7 8 9 9 9 9 8 7 7 8 9 9 11 12 11 11 11 11 11 11 11 10 10 10 9 10 10 10 10 10 11 11 11 9 9 10 11 11 13 15 9 4 8 11 17
6 5 6 7 2 -3 0 7 7 3 2 0 -2 5 6 -2 -3 -2 10 24 16 4 5 6 6 2 0 6 6 4 4 5 5 3 2 2 2 3 3 4 6 8 8 5 1 -2 -1 3 6 7 3 0 5 8 7 8 7 7 7 7 7 7 8 9 9 11 11 11 12 11 10 10 9 9 8 8 9 9 10 11 10 10 10 10 11 10 8 8 8 8 11 18 18 10 7 10 14
7 9 15 14 7 4 6 8 7 4 2 1 -1 5 2 -6 -3 -4 6 27 16 -1 3 7 8 4 -1 4 5 3 3 3 4 2 2 2 1 3 4 5 5 5 7 6 5 3 2 2 4 7 4 -0 4 7 6 6 6 7 6 6 7 7 7 9 9 10 12 12 13 13 12 11 10 9 8 6 6 6 7 9 10 11 11 11 11 11 10 8 8 9 8 12 20 17 11 8 11
7 10 16 19 17 15 10 5 5 4 -0 -0 -1 1 -1 -3 3 -1 6 27 18 -1 -0 6 10 5 -2 2 4 3 3 3 4 2 2 2 1 2 3 4 4 4 5 5 6 5 4 3 3 7 6 0 3 7 7 6 6 5 5 5 6 6 7 8 9 11 12 12 12 12 12 11 10 10 11 10 10 10 10 8 9 11 12 13 13 11 11 9 8 11 9 7 14 19 17 10 6
9 10 9 12 15 13 8 2 3 2 -2 2 1 0 5 6 8 3 3 20 23 7 2 6 9 4 1 5 5 4 4 3 4 3 2 2 0 1 2 3 3 2 3 4 6 6 5 4 4 7 7 1 2 7 7 6 7 6 6 5 6 6 7 8 10 10 10 10 9 9 9 10 10 9 11 13 14 15 16 15 12 11 12 14 15 14 13 12 9 10 10 8 10 15 15 12 9
11 12 8 6 4 1 3 3 3 4 3 7 6 5 13 10 4 3 4 15 22 14 7 6 5 4 5 6 4 3 3 3 4 4 3 2 0 1 1 3 4 3 3 4 6 7 6 5 5 8 8 2 1 6 7 6 7 7 6 5 5 5 5 7 9 9 9 8 7 8 8 8 10 11 13 14 15 16 17 18 17 14 12 14 16 16 15 14 13 10 11 11 10 12 12 13 16
13 12 9 7 3 -0 2 3 3 7 8 11 10 10 14 8 1 3 7 14 17 14 12 5 1 6 7 5 4 4 4 3 3 3 3 3 2 2 1 2 4 5 5 4 6 7 6 5 5 8 9 3 1 6 8 6 6 7 6 5 4 4 5 6 8 8 8 7 7 8 8 8 9 11 14 16 16 15 13 13 15 16 15 13 15 17 17 16 15 13 12 11 10 11 9 10 17
14 10 8 5 3 1 1 4 5 9 12 15 15 14 12 5 3 6 11 15 13 9 12 6 1 4 3 2 4 5 4 3 3 3 3 3 3 2 1 2 3 5 6 6 6 6 6 6 5 8 10 4 1 5 8 6 6 6 6 5 4 3 4 5 7 7 7 7 7 8 9 10 10 11 15 17 16 14 13 10 11 14 15 15 14 15 17 17 17 17 15 13 12 12 11 10 12
9 7 6 5 4 3 4 6 7 9 10 10 10 12 10 6 7 10 13 16 10 5 8 7 3 2 -0 0 2 3 4 3 2 2 2 3 3 1 1 2 2 4 6 7 7 7 7 6 6 10 11 4 1 6 8 7 6 6 5 5 4 4 4 5 6 6 6 6 7 8 10 11 12 14 17 18 16 13 13 12 11 12 13 14 13 11 13 14 14 17 17 17 17 14 15 12 8
7 8 12 14 14 12 11 9 7 7 6 6 6 8 7 6 9 13 14 16 13 9 9 10 8 4 1 1 1 2 4 4 3 3 3 4 3 2 2 2 2 3 4 7 8 8 8 7 8 11 11 4 1 6 9 8 7 6 5 6 5 5 5 6 6 6 6 5 6 8 10 12 14 17 19 18 16 14 14 14 13 12 12 13 13 12 12 11 10 12 13 16 19 19 19 15 10
8 12 16 18 15 14 13 12 10 9 8 7 6 7 7 7 9 10 11 12 13 14 15 15 12 6 3 3 3 3 4 5 6 4 4 4 4 3 2 2 3 3 4 6 8 9 9 8 9 12 11 3 2 7 9 8 8 6 5 6 6 5 6 7 7 6 5 4 6 7 10 14 16 19 20 17 14 12 12 12 12 12 11 12 13 13 13 13 12 11 10 10 14 19 22 20 14
5 10 10 8 6 8 10 11 12 13 13 11 9 9 9 8 6 4 4 6 8 12 14 15 14 9 6 4 4 4 4 6 8 5 4 4 4 4 3 3 5 4 4 5 7 9 9 8 9 12 10 2 1 7 8 8 8 6 5 5 5 6 7 7 7 6 5 5 6 7 9 14 18 19 18 15 12 11 10 10 11 11 11 11 13 14 15 16 16 14 12 10 9 12 18 23 21
7 6 4 3 2 3 3 5 8 10 13 14 12 11 10 9 6 2 1 3 4 8 12 15 16 14 10 7 6 4 1 4 7 5 4 4 5 4 3 4 6 5 4 5 7 9 8 8 10 12 9 1 1 7 7 8 8 6 5 5 5 6 7 7 7 6 5 5 6 8 10 14 18 20 18 14 11 10 10 10 10 11 13 14 15 16 16 16 17 16 14 12 9 9 10 16 24
5 3 4 6 4 3 4 6 9 9 11 13 11 9 9 11 9 5 4 3 3 7 11 14 16 16 13 10 8 3 0 4 6 5 5 5 6 5 3 5 6 5 5 5 6 7 7 8 10 11 8 1 2 7 7 8 9 6 5 4 5 7 7 7 8 6 5 5 7 9 10 13 18 18 16 14 12 10 9 9 11 13 16 17 17 18 18 17 17 17 17 15 11 9 9 10 17
1 3 6 5 4 8 12 13 15 13 9 9 10 10 10 12 13 11 9 8 7 10 12 13 16 17 15 13 9 5 5 7 7 5 5 6 6 5 4 5 6 5 6 6 6 6 6 8 10 10 7 3 3 7 8 9 9 7 5 5 5 7 7 8 8 7 5 4 7 10 11 14 17 17 16 16 14 11 9 9 11 14 15 16 15 15 16 18 18 19 20 21 18 12 10 9 11
-0 2 3 2 3 9 13 15 17 16 14 12 13 13 9 9 13 12 9 8 9 9 9 9 9 10 11 10 8 8 8 8 7 6 6 7 6 5 4 4 6 6 6 5 4 4 6 7 9 10 8 4 4 6 8 9 9 7 5 5 5 6 6 7 8 7 6 4 7 11 12 15 17 17 17 18 15 10 7 9 13 15 15 12 12 13 15 17 16 16 20 24 25 21 15 12 12
Height
5916 5915 5914 5914 5914 5913 5913 5912 5911 5910 5909 5906 5905 5905 5905 5906 5906 5905 5905 5905 5905 5905 5904 5905 5905 5905 5904 5904 5903 5903 5904 5904 5904 5904 5907 5908 5907 5906 5906 5907 5907 5907 5908 5909 5910 5911 5911 5912 5912 5912 5913 5914 5916 5918 5919 5919 5918 5918 5918 5918 5919 5920 5921 5922 5922 5923 5923 5923 5923 5923 5923 5923 5923 5923 5924 5924 5924 5924 5924 5924 5924 5925 5925 5926 5926 5927 5927 5927 5927 5927 5927 5927 5926 5926 5926 5926 5926
5918 5917 5916 5916 5916 5915 5914 5914 5912 5911 5910 5907 5907 5908 5908 5908 5908 5908 5907 5906 5907 5906 5905 5906 5907 5906 5905 5905 5905 5905 5905 5905 5905 5905 5907 5908 5909 5908 5907 5907 5907 5908 5909 5910 5910 5910 5911 5912 5913 5913 5914 5914 5916 5917 5918 5919 5919 5919 5919 5919 5920 5921 5921 5922 5922 5923 5923 5923 5923 5923 5923 5923 5923 5924 5924 5924 5925 5925 5925 5925 5925 5925 5926 5927 5927 5927 5928 5928 5928 5927 5927 5927 5927 5927 5927 5927 5927
5919 5919 5918 5917 5917 5916 5916 5915 5913 5913 5912 5909 5910 5910 5909 5910 5911 5910 5909 5908 5908 5907 5907 5908 5908 5907 5906 5906 5906 5906 5907 5907 5907 5906 5907 5909 5910 5910 5909 5908 5908 5909 5909 5910 5911 5911 5911 5912 5913 5913 5914 5915 5916 5917 5917 5918 5919 5919 5919 5920 5920 5921 5922 5922 5922 5923 5923 5923 5923 5923 5923 5924 5924 5924 5924 5924 5924 5925 5925 5925 5926 5926 5927 5927 5928 5928 5928 5928 5928 5927 5927 5927 5927 5927 5927 5928 5928
5921 5920 5920 5919 5918 5918 5917 5916 5915 5914 5913 5912 5912 5912 5911 5912 5913 5912 5911 5910 5910 5908 5908 5909 5909 5909 5908 5908 5909 5908 5908 5909 5908 5907 5908 5909 5910 5911 5911 5910 5910 5910 5910 5911 5911 5912 5912 5913 5913 5914 5915 5915 5916 5917 5917 5918 5918 5919 5919 5920 5920 5921 5922 5922 5923 5923 5923 5923 5923 5924 5924 5924 5924 5924 5924 5924 5924 5925 5925 5926 5926 5926 5927 5927 5928 5928 5928 5928 5928 5927 5927 5927 5927 5927 5928 5928 5928
5922 5922 5922 5921 5920 5919 5918 5917 5916 5916 5915 5914 5915 5914 5913 5914 5914 5913 5913 5913 5912 5910 5910 5910 5910 5911 5910 5910 5911 5911 5911 5910 5910 5908 5908 5910 5911 5911 5912 5912 5912 5911 5911 5912 5913 5913 5914 5914 5914 5915 5916 5916 5917 5917 5917 5918 5918 5919 5919 5920 5920 5921 5922 5922 5923 5923 5923 5923 5924 5924 5924 5924 5925 5925 5925 5925 5925 5925 5926 5926 5926 5926 5927 5927 5928 5928 5928 5928 5928 5927 5927 5927 5927 5927 5928 5928 5928
5924 5923 5923 5923 5922 5921 5920 5919 5918 5917 5917 5916 5917 5916 5915 5916 5916 5916 5916 5915 5914 5912 5911 5911 5912 5913 5912 5913 5913 5913 5913 5912 5911 5910 5910 5911 5911 5912 5913 5914 5914 5913 5913 5913 5914 5914 5915 5916 5916 5916 5917 5917 5917 5918 5918 5918 5919 5919 5920 5920 5921 5921 5922 5922 5923 5923 5923 5924 5924 5924 5924 5925 5925 5925 5925 5925 5926 5926 5926 5927 5927 5927 5927 5927 5928 5928 5928 5927 5927 5927 5927 5927 5928 5927 5928 5928 5928
5925 5925 5925 5925 5924 5922 5921 5921 5920 5919 5919 5918 5918 5918 5917 5917 5918 5918 5918 5916 5916 5914 5913 5914 5913 5915 5915 5915 5915 5915 5914 5914 5913 5912 5912 5912 5912 5912 5913 5914 5915 5916 5915 5914 5915 5915 5916 5917 5917 5918 5918 5919 5918 5918 5919 5919 5920 5920 5920 5921 5921 5921 5922 5923 5923 5923 5924 5924 5925 5925 5925 5925 5926 5926 5926 5926 5927 5927 5927 5927 5927 5928 5928 5928 5928 5928 5928 5928 5928 5928 5927 5928 5928 5928 5927 5928 5928
5926 5927 5926 5926 5925 5924 5923 5922 5921 5921 5920 5920 5920 5920 5919 5919 5919 5919 5919 5918 5917 5916 5916 5916 5915 5917 5918 5916 5917 5917 5916 5915 5914 5914 5914 5914 5913 5913 5914 5915 5916 5917 5917 5916 5916 5916 5917 5917 5918 5918 5919 5919 5919 5919 5920 5921 5921 5921 5921 5922 5922 5922 5923 5923 5924 5924 5925 5925 5926 5926 5926 5926 5926 5926 5927 5927 5927 5928 5928 5928 5928 5928 5928 5928 5928 5928 5928 5928 5928 5928 5928 5928 5928 5928 5927 5928 5928
5928 5928 5928 5927 5926 5926 5925 5924 5923 5922 5922 5921 5921 5921 5921 5920 5920 5920 5920 5920 5919 5919 5919 5918 5918 5920 5919 5918 5919 5918 5918 5917 5915 5916 5916 5915 5915 5915 5916 5916 5917 5917 5918 5918 5918 5918 5918 5918 5918 5919 5919 5919 5920 5920 5921 5922 5922 5922 5922 5922 5923 5923 5923 5924 5925 5925 5926 5926 5926 5927 5927 5927 5927 5927 5927 5927 5928 5928 5928 5928 5928 5928 5929 5929 5928 5928 5928 5928 5928 5928 5928 5928 5928 5928 5927 5927 5927
5928 5929 5929 5928 5927 5927 5926 5925 5924 5924 5924 5923 5923 5922 5922 5922 5922 5922 5922 5922 5922 5921 5921 5920 5920 5921 5920 5919 5920 5919 5919 5918 5917 5917 5917 5917 5917 5918 5918 5919 5919 5919 5919 5920 5920 5921 5921 5920 5920 5920 5920 5921 5922 5922 5923 5923 5923 5923 5923 5923 5923 5923 5924 5924 5925 5925 5925 5926 5926 5927 5927 5927 5928 5928 5928 5928 5928 5928 5928 5928 5928 5928 5929 5929 5929 5928 5928 5928 5928 5928 5928 5928 5928 5928 5928 5927 5927
5929 5930 5930 5930 5928 5928 5927 5927 5926 5926 5925 5924 5924 5924 5923 5923 5923 5923 5923 5924 5924 5923 5923 5922 5922 5922 5921 5921 5921 5920 5920 5920 5919 5918 5919 5919 5919 5919 5920 5920 5920 5920 5920 5921 5921 5922 5922 5923 5922 5922 5923 5923 5923 5924 5924 5923 5923 5923 5923 5923 5923 5923 5923 5923 5924 5924 5924 5925 5925 5926 5927 5927 5928 5928 5928 5928 5928 5928 5928 5927 5928 5928 5929 5929 5929 5929 5929 5929 5929 5928 5928 5928 5928 5928 5928 5928 5927
5929 5930 5931 5930 5930 5929 5929 5928 5927 5927 5927 5926 5925 5925 5925 5925 5925 5925 5925 5925 5925 5925 5925 5924 5924 5923 5923 5923 5922 5921 5921 5921 5920 5920 5920 5920 5920 5921 5921 5921 5922 5922 5921 5922 5922 5922 5922 5923 5923 5923 5924 5924 5924 5924 5924 5924 5923 5923 5924 5924 5924 5924 5924 5924 5924 5924 5924 5925 5925 5926 5926 5927 5927 5928 5928 5928 5928 5928 5927 5927 5927 5928 5928 5928 5929 5929 5929 5929 5928 5927 5927 5927 5928 5928 5928 5928 5928
5930 5930 5930 5931 5931 5930 5930 5929 5929 5928 5928 5927 5927 5926 5926 5926 5926 5926 5926 5926 5926 5926 5926 5925 5925 5924 5924 5924 5924 5923 5922 5922 5922 5921 5922 5922 5922 5922 5922 5922 5922 5923 5923 5923 5923 5923 5923 5923 5923 5923 5924 5924 5924 5923 5923 5924 5924 5924 5925 5925 5925 5925 5925 5925 5925 5926 5926 5926 5926 5926 5927 5927 5927 5927 5927 5927 5927 5927 5927 5927 5927 5927 5927 5927 5928 5928 5928 5927 5926 5925 5925 5925 5926 5928 5929 5929 5929
5930 5931 5931 5931 5932 5931 5931 5930 5930 5929 5929 5929 5928 5928 5927 5927 5927 5926 5927 5927 5927 5927 5927 5926 5926 5926 5926 5925 5925 5924 5924 5923 5923 5923 5923 5923 5923 5923 5923 5923 5924 5924 5924 5924 5924 5924 5924 5924 5924 5924 5924 5924 5924 5924 5924 5924 5924 5925 5925 5925 5926 5926 5926 5926 5927 5927 5927 5927 5927 5927 5927 5927 5927 5927 5927 5927 5927 5927 5927 5927 5927 5927 5926 5926 5925 5925 5926 5925 5923 5923 5923 5923 5925 5926 5928 5928 5929
5931 5931 5931 5932 5932 5932 5932 5931 5931 5930 5930 5930 5929 5929 5929 5928 5928 5927 5927 5927 5928 5927 5927 5927 5927 5927 5927 5926 5926 5926 5925 5925 5925 5924 5924 5924 5924 5924 5925 5925 5925 5925 5924 5924 5924 5924 5924 5924 5924 5924 5924 5925 5925 5925 5925 5925 5925 5926 5926 5926 5926 5927 5927 5927 5927 5927 5928 5928 5928 5928 5927 5927 5927 5927 5927 5927 5927 5927 5927 5927 5927 5926 5925 5924 5924 5925 5926 5925 5924 5924 5924 5925 5925 5926 5926 5927 5928
5931 5931 5932 5932 5933 5933 5932 5932 5932 5931 5931 5930 5930 5930 5929 5929 5928 5928 5928 5928 5928 5928 5928 5928 5928 5928 5927 5927 5927 5927 5927 5926 5926 5926 5926 5926 5926 5926 5926 5926 5926 5925 5925 5925 5925 5925 5925 5925 5925 5924 5924 5925 5925 5926 5926 5926 5926 5926 5926 5927 5927 5927 5927 5927 5927 5927 5928 5928 5928 5928 5928 5928 5928 5928 5928 5928 5928 5927 5927 5927 5926 5925 5924 5923 5925 5928 5927 5926 5926 5926 5926 5926 5927 5927 5925 5925 5926
5931 5932 5932 5933 5934 5934 5933 5933 5932 5931 5931 5931 5931 5930 5930 5929 5928 5928 5928 5928 5928 5928 5928 5929 5928 5928 5928 5927 5927 5927 5927 5927 5927 5927 5927 5927 5927 5927 5927 5927 5927 5927 5926 5926 5926 5926 5926 5926 5925 5925 5925 5925 5925 5926 5927 5926 5926 5926 5926 5926 5926 5926 5926 5927 5927 5927 5927 5927 5928 5928 5928 5928 5928 5928 5928 5928 5927 5927 5927 5926 5925 5924 5923 5925 5928 5929 5926 5925 5925 5924 5924 5925 5927 5928 5927 5925 5926
5932 5932 5933 5934 5934 5934 5934 5933 5932 5932 5931 5931 5931 5930 5930 5929 5928 5928 5929 5929 5929 5929 5929 5929 5929 5929 5928 5928 5927 5928 5928 5928 5928 5928 5928 5928 5928 5928 5928 5928 5928 5927 5927 5927 5927 5927 5927 5926 5926 5926 5926 5926 5926 5926 5926 5926 5926 5926 5926 5926 5926 5926 5926 5926 5926 5926 5926 5927 5927 5927 5927 5928 5927 5927 5927 5927 5926 5926 5926 5925 5924 5923 5923 5926 5928 5927 5925 5924 5923 5922 5921 5923 5925 5928 5927 5926 5926
5932 5933 5933 5934 5934 5934 5934 5933 5933 5932 5932 5932 5931 5931 5930 5929 5928 5929 5929 5929 5929 5929 5929 5929 5929 5929 5929 5928 5928 5928 5929 5929 5929 5929 5929 5929 5929 5928 5928 5928 5928 5928 5928 5927 5927 5927 5927 5927 5927 5926 5926 5926 5926 5926 5926 5926 5927 5927 5927 5927 5927 5927 5926 5926 5926 5926 5926 5926 5927 5927 5927 5926 5926 5927 5926 5926 5926 5925 5925 5924 5923 5922 5922 5926 5928 5925 5923 5923 5922 5921 5921 5921 5923 5925 5926 5926 5926
5933 5933 5934 5934 5935 5934 5934 5934 5933 5933 5932 5932 5931 5931 5930 5929 5928 5929 5929 5929 5929 5929 5930 5930 5930 5930 5929 5929 5929 5929 5929 5930 5930 5930 5930 5930 5929 5929 5929 5928 5928 5928 5928 5928 5927 5927 5927 5927 5927 5926 5926 5926 5926 5926 5926 5927 5927 5927 5927 5927 5927 5927 5926 5926 5926 5926 5926 5926 5926 5926 5926 5926 5926 5926 5926 5926 5925 5925 5924 5923 5922 5921 5921 5925 5927 5925 5923 5922 5921 5920 5920 5921 5923 5924 5925 5925 5925
5933 5934 5934 5935 5935 5934 5934 5934 5934 5933 5933 5932 5931 5930 5930 5929 5929 5929 5929 5929 5929 5929 5929 5930 5930 5930 5930 5930 5929 5929 5930 5930 5930 5930 5930 5930 5930 5930 5929 5929 5929 5928 5928 5928 5928 5927 5927 5927 5927 5926 5926 5926 5926 5926 5926 5927 5927 5926 5926 5926 5926 5926 5926 5926 5925 5925 5926 5926 5926 5925 5925 5925 5925 5925 5925 5925 5924 5924 5923 5922 5921 5919 5919 5922 5925 5925 5923 5922 5921 5919 5918 5919 5921 5923 5923 5922 5923
5933 5934 5935 5935 5935 5935 5935 5935 5935 5934 5933 5932 5931 5931 5930 5930 5930 5929 5929 5929 5929 5929 5929 5929 5930 5931 5931 5930 5930 5930 5930 5930 5930 5930 5930 5930 5930 5930 5930 5930 5929 5929 5928 5928 5928 5927 5927 5927 5926 5926 5926 5926 5926 5926 5926 5926 5926 5926 5926 5926 5926 5926 5925 5925 5925 5925 5925 5925 5925 5925 5924 5924 5924 5924 5924 5924 5923 5923 5922 5921 5920 5918 5918 5919 5922 5924 5923 5922 5921 5919 5917 5917 5918 5920 5921 5920 5921
5934 5935 5935 5936 5936 5936 5935 5935 5936 5934 5932 5931 5932 5931 5931 5931 5930 5929 5929 5929 5928 5928 5929 5929 5930 5930 5931 5930 5930 5930 5930 5930 5930 5930 5930 5930 5930 5930 5930 5930 5929 5929 5929 5928 5928 5927 5927 5927 5927 5927 5927 5927 5927 5926 5926 5926 5926 5926 5926 5926 5926 5925 5925 5925 5924 5924 5924 5924 5924 5923 5923 5923 5923 5923 5923 5922 5922 5922 5921 5920 5919 5917 5916 5916 5918 5921 5922 5921 5920 5919 5917 5916 5916 5917 5918 5919 5919
5934 5935 5936 5936 5936 5936 5936 5936 5936 5934 5932 5932 5932 5931 5931 5931 5930 5929 5929 5929 5928 5928 5928 5929 5929 5930 5930 5930 5930 5930 5930 5930 5930 5930 5930 5931 5930 5930 5930 5930 5930 5929 5929 5928 5928 5927 5927 5927 5927 5927 5927 5927 5927 5927 5927 5927 5927 5926 5926 5926 5926 5925 5924 5924 5924 5923 5923 5923 5923 5923 5922 5922 5922 5921 5921 5921 5921 5920 5920 5919 5918 5916 5915 5915 5915 5917 5919 5920 5920 5919 5917 5916 5915 5915 5916 5917 5917
5935 5936 5936 5937 5936 5936 5935 5936 5936 5934 5932 5932 5932 5932 5931 5931 5930 5929 5929 5929 5929 5928 5928 5928 5929 5929 5930 5930 5930 5930 5930 5930 5930 5930 5930 5930 5930 5930 5930 5930 5930 5929 5929 5928 5928 5927 5927 5927 5927 5927 5927 5927 5927 5927 5927 5927 5927 5927 5926 5926 5925 5924 5923 5923 5923 5922 5922 5922 5922 5922 5922 5922 5921 5921 5920 5920 5920 5919 5919 5918 5917 5916 5915 5914 5913 5914 5915 5917 5917 5917 5916 5915 5914 5914 5914 5915 5915
5935 5936 5937 5937 5936 5935 5935 5936 5935 5933 5933 5933 5932 5932 5931 5930 5930 5929 5929 5929 5929 5928 5928 5928 5929 5929 5929 5930 5930 5929 5930 5930 5930 5930 5931 5930 5930 5930 5930 5930 5930 5930 5929 5928 5928 5927 5927 5927 5928 5928 5928 5928 5927 5927 5926 5926 5926 5926 5926 5925 5924 5923 5923 5922 5922 5921 5921 5921 5921 5921 5921 5920 5920 5919 5919 5918 5918 5918 5917 5916 5916 5915 5914 5913 5912 5912 5913 5913 5914 5914 5914 5914 5913 5912 5912 5912 5913
5935 5936 5937 5937 5936 5935 5935 5936 5935 5934 5933 5933 5933 5932 5931 5930 5930 5930 5930 5929 5929 5929 5928 5929 5929 5929 5930 5929 5929 5929 5929 5930 5930 5930 5930 5930 5930 5930 5930 5930 5930 5930 5929 5929 5928 5928 5927 5927 5928 5927 5927 5927 5926 5925 5925 5925 5925 5924 5924 5924 5923 5922 5922 5921 5921 5920 5920 5920 5919 5919 5919 5918 5917 5917 5917 5916 5916 5916 5915 5915 5914 5913 5913 5912 5912 5911 5911 5911 5911 5911 5912 5912 5912 5911 5910 5910 5910
5935 5936 5937 5936 5936 5935 5935 5935 5935 5934 5934 5933 5933 5933 5932 5931 5930 5931 5931 5930 5930 5929 5929 5929 5929 5930 5930 5929 5929 5929 5929 5929 5929 5930 5930 5930 5930 5930 5930 5930 5930 5930 5929 5929 5928 5927 5927 5927 5927 5927 5926 5925 5924 5923 5923 5923 5923 5922 5922 5922 5921 5921 5921 5920 5920 5919 5918 5918 5917 5917 5916 5915 5914 5914 5914 5914 5914 5914 5913 5913 5912 5911 5910 5910 5910 5910 5909 5909 5909 5909 5909 5909 5909 5909 5909 5909 5909
5935 5936 5936 5936 5936 5935 5936 5935 5935 5935 5934 5933 5933 5933 5932 5932 5932 5932 5932 5932 5931 5930 5930 5930 5930 5930 5930 5929 5929 5929 5929 5929 5929 5929 5930 5930 5929 5930 5930 5930 5930 5929 5929 5929 5928 5927 5926 5926 5926 5925 5925 5924 5922 5921 5921 5921 5921 5920 5920 5920 5920 5920 5920 5919 5918 5917 5916 5916 5915 5914 5914 5913 5912 5911 5911 5911 5911 5911 5911 5910 5910 5909 5908 5908 5908 5907 5907 5907 5907 5907 5907 5907 5906 5906 5906 5906 5907
5934 5935 5936 5936 5936 5936 5936 5936 5935 5935 5935 5934 5934 5934 5934 5933 5933 5934 5933 5933 5933 5931 5930 5930 5930 5930 5930 5930 5929 5929 5929 5929 5929 5930 5930 5930 5930 5930 5930 5930 5929 5929 5929 5928 5928 5927 5926 5925 5925 5924 5924 5923 5922 5921 5920 5920 5919 5919 5919 5919 5919 5919 5919 5918 5917 5916 5915 5914 5913 5912 5912 5911 5910 5909 5909 5909 5909 5909 5908 5908 5907 5906 5906 5906 5906 5905 5904 5904 5904 5904 5904 5904 5904 5904 5903 5903 5904
5934 5935 5936 5936 5936 5936 5936 5936 5935 5935 5935 5935 5935 5935 5935 5934 5934 5934 5934 5934 5934 5932 5930 5930 5930 5930 5930 5930 5930 5930 5930 5930 5930 5930 5930 5930 5930 5930 5930 5929 5929 5929 5929 5928 5927 5926 5925 5925 5924 5924 5923 5922 5922 5921 5920 5919 5919 5919 5919 5919 5919 5918 5917 5916 5915 5914 5913 5912 5911 5909 5909 5909 5907 5906 5907 5907 5907 5906 5905 5905 5904 5903 5903 5903 5903 5902 5902 5901 5901 5900 5900 5901 5902 5901 5901 5901 5901
5934 5935 5935 5935 5936 5936 5936 5936 5935 5936 5936 5936 5935 5936 5935 5935 5934 5934 5935 5935 5935 5933 5931 5931 5930 5930 5930 5930 5930 5930 5931 5931 5930 5930 5930 5930 5930 5930 5929 5929 5929 5929 5928 5927 5927 5926 5925 5924 5924 5923 5922 5921 5921 5920 5919 5918 5918 5919 5919 5919 5918 5917 5916 5914 5913 5912 5911 5909 5908 5907 5906 5906 5905 5904 5905 5905 5904 5903 5902 5902 5901 5900 5900 5899 5899 5899 5898 5898 5897 5897 5897 5897 5898 5898 5898 5899 5899
5934 5935 5936 5936 5936 5936 5936 5936 5936 5936 5936 5936 5936 5936 5936 5935 5935 5935 5935 5935 5935 5934 5933 5932 5931 5931 5931 5931 5931 5931 5931 5931 5930 5930 5929 5929 5929 5929 5929 5928 5928 5928 5927 5926 5926 5925 5924 5923 5923 5922 5921 5920 5919 5918 5917 5917 5918 5918 5918 5917 5916 5915 5913 5912 5910 5909 5908 5907 5906 5905 5904 5903 5902 5900 5900 5901 5901 5900 5899 5899 5898 5896 5896 5896 5895 5895 5894 5894 5893 5893 5894 5894 5894 5894 5895 5896 5896
5934 5935 5935 5936 5936 5936 5935 5936 5936 5936 5936 5936 5937 5937 5936 5936 5935 5935 5935 5935 5935 5935 5934 5933 5932 5932 5931 5931 5931 5931 5930 5930 5930 5930 5929 5929 5928 5928 5928 5928 5927 5927 5927 5926 5925 5924 5924 5923 5922 5921 5921 5920 5918 5917 5916 5916 5917 5918 5917 5915 5914 5912 5911 5910 5909 5908 5906 5905 5904 5903 5902 5901 5900 5897 5895 5896 5897 5897 5896 5896 5894 5893 5892 5892 5891 5891 5890 5890 5889 5889 5889 5889 5890 5891 5891 5892 5893
5934 5935 5935 5936 5936 5935 5935 5935 5936 5936 5936 5936 5937 5937 5937 5936 5935 5935 5935 5935 5935 5935 5935 5934 5933 5933 5932 5931 5931 5931 5930 5930 5930 5929 5929 5929 5928 5927 5927 5927 5926 5926 5926 5926 5925 5924 5923 5922 5922 5921 5920 5919 5917 5916 5915 5915 5917 5917 5915 5912 5911 5910 5909 5908 5907 5906 5904 5903 5901 5900 5899 5898 5898 5896 5893 5892 5892 5892 5893 5892 5891 5890 5888 5887 5887 5886 5886 5886 5886 5885 5885 5884 5885 5886 5888 5888 5889
5934 5935 5935 5935 5935 5935 5935 5935 5935 5935 5936 5936 5937 5937 5937 5936 5935 5935 5935 5935 5935 5935 5934 5933 5933 5933 5932 5931 5931 5931 5931 5930 5930 5930 5929 5929 5928 5928 5927 5926 5926 5925 5925 5925 5924 5923 5922 5921 5920 5920 5919 5917 5916 5915 5913 5914 5915 5916 5913 5910 5909 5908 5907 5905 5904 5903 5902 5900 5898 5897 5896 5895 5894 5894 5892 5890 5889 5888 5887 5887 5887 5886 5884 5883 5882 5882 5883 5883 5883 5882 5882 5881 5881 5883 5884 5884 5884
5932 5934 5934 5934 5934 5934 5934 5934 5935 5935 5935 5936 5936 5937 5937 5936 5936 5935 5935 5935 5935 5934 5934 5933 5932 5932 5932 5931 5931 5930 5930 5930 5930 5930 5930 5929 5929 5928 5927 5926 5926 5925 5924 5923 5922 5922 5921 5920 5919 5918 5917 5916 5914 5913 5912 5911 5912 5913 5911 5909 5906 5906 5905 5903 5901 5899 5898 5897 5896 5894 5893 5891 5891 5890 5889 5888 5887 5885 5883 5882 5882 5881 5880 5879 5879 5880 5881 5880 5878 5879 5878 5877 5877 5879 5880 5880 5880
5929 5931 5933 5934 5934 5934 5934 5934 5934 5935 5935 5936 5936 5936 5936 5936 5936 5935 5935 5935 5935 5934 5934 5933 5932 5932 5931 5931 5931 5930 5930 5930 5930 5930 5929 5929 5928 5927 5927 5926 5925 5924 5924 5923 5922 5921 5920 5919 5918 5917 5916 5915 5913 5911 5910 5909 5909 5909 5909 5907 5905 5903 5902 5900 5898 5896 5895 5894 5892 5891 5890 5888 5887 5886 5885 5884 5883 5882 5880 5879 5877 5876 5876 5875 5876 5877 5876 5874 5873 5873 5872 5872 5872 5873 5875 5875 5875
5928 5929 5931 5932 5933 5934 5934 5934 5934 5934 5935 5935 5935 5935 5936 5936 5936 5935 5935 5935 5934 5934 5934 5933 5932 5931 5931 5931 5931 5930 5930 5930 5929 5929 5929 5928 5927 5927 5926 5925 5924 5923 5922 5922 5921 5920 5920 5919 5918 5917 5916 5915 5913 5911 5909 5907 5907 5906 5905 5905 5903 5901 5899 5898 5896 5894 5892 5890 5889 5887 5886 5884 5883 5882 5880 5879 5878 5877 5876 5876 5874 5872 5871 5871 5873 5873 5871 5870 5870 5869 5867 5867 5867 5869 5870 5871 5871
5928 5929 5929 5931 5932 5933 5933 5934 5934 5934 5935 5935 5935 5935 5935 5935 5935 5935 5935 5934 5934 5933 5933 5933 5932 5931 5930 5930 5930 5930 5930 5929 5929 5928 5928 5927 5926 5926 5925 5924 5923 5922 5921 5920 5920 5919 5919 5918 5917 5916 5915 5914 5912 5910 5908 5906 5905 5903 5902 5901 5900 5898 5896 5895 5893 5891 5889 5888 5886 5884 5883 5882 5880 5878 5876 5875 5874 5873 5872 5871 5870 5868 5866 5867 5868 5868 5867 5866 5866 5865 5863 5863 5864 5864 5866 5866 5866
5928 5928 5929 5930 5931 5932 5933 5933 5933 5934 5934 5934 5934 5934 5934 5934 5934 5934 5934 5933 5933 5932 5932 5932 5932 5931 5930 5929 5929 5929 5929 5928 5928 5927 5927 5926 5925 5925 5924 5923 5922 5921 5920 5919 5919 5918 5917 5916 5915 5914 5913 5912 5910 5908 5906 5904 5902 5901 5899 5898 5897 5895 5893 5892 5890 5888 5886 5885 5883 5881 5880 5878 5877 5875 5873 5871 5870 5869 5867 5866 5866 5864 5863 5862 5863 5863 5862 5861 5861 5860 5859 5858 5858 5859 5860 5861 5861
5927 5928 5929 5930 5931 5931 5932 5932 5932 5933 5933 5933 5932 5932 5933 5933 5933 5933 5932 5932 5931 5931 5931 5931 5931 5930 5929 5928 5928 5928 5928 5927 5927 5926 5926 5925 5924 5923 5923 5922 5921 5920 5919 5918 5917 5916 5915 5914 5913 5912 5911 5909 5908 5906 5904 5902 5900 5898 5896 5895 5894 5892 5891 5889 5887 5886 5884 5882 5880 5878 5876 5874 5873 5871 5869 5867 5865 5864 5863 5862 5861 5860 5859 5858 5858 5858 5858 5857 5855 5854 5853 5853 5853 5853 5853 5854 5856
5926 5927 5928 5929 5930 5930 5931 5931 5931 5931 5931 5931 5931 5931 5932 5932 5932 5931 5931 5930 5930 5929 5929 5930 5930 5929 5928 5928 5927 5927 5927 5926 5926 5925 5925 5924 5923 5922 5921 5920 5919 5918 5918 5917 5916 5915 5914 5913 5912 5910 5909 5908 5906 5904 5902 5900 5898 5896 5894 5892 5890 5888 5887 5885 5884 5882 5881 5879 5877 5875 5873 5871 5869 5867 5865 5863 5861 5860 5858 5857 5856 5855 5854 5853 5853 5853 5853 5851 5849 5848 5847 5847 5848 5848 5847 5849 5852
5924 5925 5926 5928 5929 5929 5929 5929 5929 5929 5929 5929 5930 5930 5930 5930 5930 5930 5929 5929 5928 5928 5928 5928 5929 5928 5928 5927 5926 5925 5925 5925 5924 5924 5923 5922 5922 5921 5920 5919 5918 5917 5916 5915 5914 5913 5911 5910 5909 5908 5906 5904 5902 5900 5898 5896 5895 5893 5891 5889 5887 5885 5883 5881 5880 5878 5877 5875 5874 5872 5870 5868 5866 5864 5862 5860 5857 5856 5854 5852 5851 5850 5849 5848 5847 5848 5847 5845 5843 5843 5843 5843 5843 5843 5842 5844 5846
5923 5923 5924 5926 5926 5927 5927 5927 5927 5927 5927 5928 5928 5928 5928 5928 5929 5928 5927 5927 5926 5925 5926 5927 5927 5927 5927 5926 5925 5924 5924 5924 5923 5922 5922 5921 5920 5919 5918 5917 5916 5915 5914 5912 5911 5909 5908 5906 5905 5904 5902 5901 5899 5897 5895 5893 5891 5889 5887 5885 5883 5881 5880 5878 5876 5874 5873 5871 5869 5867 5866 5864 5862 5861 5859 5856 5854 5852 5850 5848 5846 5844 5843 5842 5841 5842 5841 5840 5839 5838 5838 5837 5837 5837 5838 5839 5840
5920 5920 5921 5922 5923 5924 5924 5925 5925 5925 5925 5927 5927 5927 5926 5926 5927 5926 5926 5925 5924 5924 5925 5925 5926 5926 5925 5925 5924 5923 5923 5923 5922 5921 5920 5919 5918 5918 5917 5916 5914 5913 5911 5910 5908 5907 5905 5903 5902 5901 5900 5898 5896 5894 5892 5890 5888 5886 5883 5881 5879 5878 5876 5874 5871 5869 5867 5865 5863 5861 5859 5857 5856 5855 5854 5852 5850 5848 5846 5844 5842 5839 5838 5836 5835 5835 5835 5834 5834 5833 5832 5831 5831 5833 5834 5834 5834
5918 5918 5919 5920 5920 5921 5922 5923 5923 5923 5923 5925 5925 5925 5924 5924 5925 5925 5924 5923 5923 5923 5924 5924 5924 5924 5924 5923 5923 5922 5922 5921 5921 5920 5919 5918 5917 5916 5915 5914 5913 5911 5909 5908 5906 5904 5902 5901 5899 5898 5897 5896 5894 5892 5890 5887 5885 5883 5881 5879 5877 5875 5873 5871 5868 5865 5863 5860 5857 5855 5852 5850 5848 5847 5846 5845 5844 5842 5841 5839 5837 5834 5832 5831 5829 5829 5828 5828 5827 5827 5827 5826 5826 5828 5829 5828 5828
5916 5917 5918 5918 5919 5919 5920 5921 5921 5921 5921 5923 5923 5922 5922 5922 5923 5923 5922 5922 5921 5921 5922 5922 5922 5922 5921 5921 5920 5920 5920 5920 5919 5918 5917 5916 5916 5915 5914 5913 5911 5909 5908 5906 5904 5903 5901 5899 5898 5896 5895 5893 5891 5889 5887 5885 5884 5882 5880 5878 5876 5874 5872 5869 5867 5864 5861 5858 5855 5852 5849 5846 5843 5841 5839 5837 5836 5835 5834 5833 5831 5829 5826 5825 5824 5823 5822 5821 5821 5821 5821 5820 5820 5821 5823 5823 5822
5914 5915 5916 5917 5917 5917 5918 5918 5918 5919 5919 5920 5920 5919 5919 5920 5921 5921 5920 5920 5920 5919 5920 5920 5920 5920 5919 5919 5918 5917 5917 5917 5917 5916 5915 5914 5914 5913 5911 5910 5909 5908 5906 5904 5903 5901 5899 5897 5895 5894 5892 5890 5889 5887 5885 5883 5881 5879 5877 5876 5874 5871 5869 5867 5864 5861 5858 5855 5852 5849 5846 5843 5840 5837 5834 5832 5830 5829 5827 5826 5825 5824 5821 5819 5818 5817 5816 5815 5815 5815 5815 5814 5814 5815 5816 5817 5817
5913 5914 5914 5915 5915 5915 5916 5916 5916 5917 5917 5917 5917 5916 5916 5918 5918 5918 5918 5918 5918 5917 5917 5917 5918 5918 5917 5917 5916 5915 5915 5915 5915 5914 5913 5912 5911 5911 5909 5908 5907 5905 5904 5902 5901 5899 5897 5895 5893 5891 5890 5888 5886 5884 5882 5880 5878 5876 5874 5872 5870 5868 5865 5863 5860 5858 5855 5852 5849 5846 5843 5840 5836 5833 5830 5828 5826 5824 5822 5820 5818 5817 5816 5814 5812 5811 5810 5809 5808 5808 5808 5808 5808 5808 5809 5811 5812
5911 5912 5913 5913 5913 5914 5914 5914 5914 5914 5914 5914 5915 5914 5914 5915 5916 5916 5916 5916 5915 5915 5914 5914 5915 5915 5915 5915 5914 5913 5913 5913 5912 5912 5911 5910 5910 5909 5908 5906 5905 5903 5902 5900 5899 5897 5895 5893 5891 5889 5887 5885 5883 5881 5879 5877 5875 5873 5871 5868 5866 5864 5862 5859 5857 5854 5851 5848 5845 5842 5838 5835 5832 5829 5826 5823 5821 5819 5817 5815 5813 5812 5811 5809 5807 5806 5805 5804 5802 5802 5802 5802 5802 5803 5803 5804 5806
5910 5910 5911 5912 5912 5912 5912 5912 5912 5912 5912 5912 5912 5913 5913 5913 5914 5914 5913 5913 5913 5913 5912 5912 5912 5912 5912 5912 5911 5910 5910 5910 5910 5909 5908 5908 5907 5907 5905 5904 5903 5901 5899 5898 5896 5895 5893 5891 5888 5887 5885 5883 5881 5879 5877 5875 5873 5870 5868 5865 5863 5861 5858 5855 5852 5850 5847 5844 5841 5837 5834 5830 5827 5824 5821 5818 5816 5814 5812 5810 5808 5806 5805 5804 5802 5801 5800 5799 5798 5797 5796 5796 5796 5796 5797 5797 5798
5908 5909 5909 5910 5910 5910 5911 5911 5910 5910 5910 5910 5910 5911 5911 5911 5912 5911 5911 5911 5910 5910 5910 5909 5909 5909 5909 5909 5908 5907 5907 5907 5907 5906 5905 5905 5904 5904 5902 5901 5900 5898 5897 5895 5894 5892 5890 5888 5886 5884 5883 5881 5879 5877 5874 5872 5870 5867 5865 5862 5860 5857 5854 5852 5848 5845 5842 5839 5836 5833 5829 5825 5822 5819 5816 5814 5811 5809 5807 5805 5802 5800 5799 5797 5796 5795 5794 5793 5793 5791 5790 5790 5790 5790 5790 5790 5791
5907 5908 5908 5908 5909 5909 5909 5909 5908 5908 5908 5908 5908 5909 5909 5910 5910 5909 5908 5908 5908 5908 5907 5906 5906 5906 5906 5906 5905 5904 5904 5903 5903 5902 5902 5901 5901 5900 5899 5898 5897 5895 5894 5892 5891 5889 5887 5885 5883 5882 5880 5878 5876 5873 5871 5869 5866 5864 5861 5859 5856 5854 5851 5848 5845 5841 5838 5834 5831 5828 5824 5821 5817 5814 5812 5809 5806 5804 5802 5800 5797 5795 5793 5791 5790 5789 5788 5787 5786 5786 5784 5783 5784 5784 5783 5784 5784
5906 5906 5906 5907 5907 5907 5907 5907 5906 5906 5906 5906 5906 5907 5907 5908 5908 5906 5905 5905 5905 5905 5904 5904 5903 5903 5903 5903 5902 5901 5901 5900 5900 5899 5898 5898 5898 5897 5896 5895 5894 5892 5891 5889 5888 5886 5884 5882 5880 5878 5877 5875 5872 5870 5867 5865 5863 5860 5858 5855 5852 5850 5847 5844 5841 5837 5834 5830 5826 5823 5819 5816 5813 5810 5807 5805 5802 5800 5797 5795 5793 5790 5788 5785 5784 5782 5781 5780 5780 5779 5778 5777 5777 5777 5777 5777 5777
5904 5904 5904 5905 5905 5905 5905 5905 5904 5904 5904 5904 5904 5905 5906 5906 5905 5904 5903 5903 5902 5902 5901 5901 5900 5900 5899 5899 5899 5898 5898 5897 5896 5896 5895 5895 5894 5894 5893 5892 5891 5889 5888 5886 5884 5883 5881 5879 5877 5875 5873 5871 5869 5866 5864 5861 5859 5856 5853 5851 5848 5846 5843 5840 5836 5833 5829 5826 5822 5818 5815 5811 5808 5805 5803 5800 5798 5795 5793 5791 5788 5786 5783 5781 5779 5777 5775 5774 5773 5772 5771 5771 5770 5769 5770 5770 5770
5901 5902 5902 5902 5902 5902 5903 5902 5902 5902 5902 5902 5902 5903 5905 5904 5902 5901 5900 5900 5900 5899 5899 5898 5897 5897 5896 5896 5896 5895 5894 5893 5893 5892 5892 5891 5891 5890 5889 5888 5887 5886 5884 5883 5881 5879 5878 5876 5874 5871 5869 5867 5865 5862 5860 5857 5854 5852 5849 5847 5844 5841 5838 5835 5832 5828 5825 5821 5818 5814 5810 5807 5803 5800 5798 5795 5793 5791 5788 5786 5784 5781 5779 5776 5774 5772 5770 5768 5767 5765 5764 5763 5763 5762 5762 5762 5763
5899 5899 5899 5900 5900 5900 5900 5900 5900 5900 5900 5900 5900 5901 5903 5901 5899 5898 5898 5898 5898 5897 5896 5895 5895 5894 5894 5893 5893 5892 5891 5890 5889 5889 5889 5888 5887 5886 5885 5884 5884 5882 5880 5879 5877 5876 5874 5872 5870 5868 5866 5863 5861 5858 5855 5853 5850 5848 5845 5842 5839 5837 5834 5830 5827 5824 5820 5817 5813 5810 5806 5802 5799 5796 5793 5791 5788 5786 5784 5782 5779 5777 5775 5772 5770 5767 5765 5762 5761 5759 5758 5757 5756 5756 5755 5755 5756